sat.trackr.live / text

‹ back to catalog

STARLINK-1143

NORAD 45179 · 2020-012B

PAYLOAD ACTIVE UNKNOWN

§ Identity

Operator
Country
US
Launch date
2020-02-17
Launch site
AFETR
Launch vehicle
Mass (kg)
RCS (m²)

Purposes: comms

External: N2YO · Heavens-Above · Gunter

§ Orbital elements

Epoch: 2026-07-23T23:54:52.735680Z

Period
87.85 min
Inclination
53.0158°
Eccentricity
0.0010547
Mean motion
16.39225123 rev/d
Perigee alt
161.0 km
Apogee alt
174.8 km
Semi-major
6,546.0 km
B*
5.0415e-4
RAAN
1.0785°
Arg perigee
298.2021°
Mean anomaly
61.7960°
Rev number
35,753

§ Raw data

STARLINK-11431 45179U 20012B   26204.99644370  .06462553  12407-4  50415-3 0  99942 45179  53.0158   1.0785 0010547 298.2021  61.7960 16.39225123357538

JSON: /api/v1/satellites/45179 · /tle

For live sub-satellite position, see the globe view (requires WebGL).

§ Visibility from observer

Set your observer location to see the next 7 days of passes ≥ 10°. The values pass through the URL so the page stays shareable.

No JS? Fill the form by hand. The geolocation button needs JavaScript.